Hlavní strana
METAR-TAF:

METAR-TAF

Letiště :

Shelbyville, Tennessee, Spojené státy americké

zeměpisná šířka: 35-33-34N, zeměpisná délka: 086-26-33W, výška: 244 m

Aktuální stav počasí

Zpráva byla vytvořena před 16 minutami, v 04:55 UTC
Bezvětří
Teplota 1°C
Vlhkost vzduchu 69%
Tlak 1021 hPa
Viditelnost: 16.1 km
Skoro jasno ve výšce 9500 ft

METAR: KSYI 240455Z AUTO 00000KT 10SM FEW095 01/M04 A3015 RMK A01

Čas: 23:11 (05:11 UTC)


TAF: chybějící

Stav a předpovědi počasí z více než 4 000 letišť (zprávy METAR a TAF).

Červené a žluté tečky na mapě představují dostupné meteorologické stanice.

Když kurzor umístíte na tečku, zobrazí se název stanice.

Pak kliknutím zobrazíte stav a předpověď počasí.

Chcete-li změnit mapu, kliknutím na zelené tlačítko se znaménkem +mapu přiblížíte, kliknutím na zelené tlačítko se znaménkem – mapu oddálíte a kliknutím na zelené šipky přejdete na sousední mapy.


METAR-TAF: